Time,TemperatureF,DewpointF,PressureIn,WindDirection,WindDirectionDegrees,WindSpeedMPH,WindSpeedGustMPH,Humidity,HourlyPrecipIn,Conditions,Clouds,dailyrainin,SoftwareType,DateUTC
2013-12-16 00:00:00,28.7,26.4,30.11,West,264,0.0,0.0,91,0.00,,,0.00,WeatherCatV1.23B16,2013-12-16 05:00:00,
2013-12-16 00:05:00,28.5,26.5,30.11,West,264,0.0,2.0,92,0.00,,,0.00,WeatherCatV1.23B16,2013-12-16 05:05:00,
2013-12-16 00:10:00,28.5,26.5,30.11,West,264,1.0,1.0,92,0.00,,,0.00,WeatherCatV1.23B16,2013-12-16 05:10:00,
2013-12-16 00:15:00,28.4,26.6,30.11,West,264,1.0,2.0,93,0.00,,,0.00,WeatherCatV1.23B16,2013-12-16 05:15:00,
2013-12-16 00:20:00,28.3,26.5,30.11,WNW,289,1.0,5.0,93,0.00,,,0.00,WeatherCatV1.23B16,2013-12-16 05:20:00,
2013-12-16 00:25:00,28.3,26.5,30.11,WNW,289,0.0,0.0,93,0.00,,,0.00,WeatherCatV1.23B16,2013-12-16 05:25:00,
2013-12-16 00:30:00,28.3,26.5,30.11,WNW,289,0.0,0.0,93,0.00,,,0.00,WeatherCatV1.23B16,2013-12-16 05:30:00,
2013-12-16 00:35:00,28.1,26.3,30.10,WNW,289,0.0,0.0,93,0.00,,,0.00,WeatherCatV1.23B16,2013-12-16 05:35:00,
2013-12-16 00:40:00,28.0,26.2,30.11,WNW,289,0.0,0.0,93,0.00,,,0.00,WeatherCatV1.23B16,2013-12-16 05:40:00,
2013-12-16 00:45:00,27.9,26.1,30.10,WNW,289,0.0,0.0,93,0.00,,,0.00,WeatherCatV1.23B16,2013-12-16 05:45:00,
2013-12-16 00:50:00,27.8,26.0,30.10,WNW,289,0.0,0.0,93,0.00,,,0.00,WeatherCatV1.23B16,2013-12-16 05:50:00,
2013-12-16 00:55:00,27.7,26.0,30.10,WNW,289,0.0,0.0,93,0.00,,,0.00,WeatherCatV1.23B16,2013-12-16 05:55:00,
2013-12-16 01:00:00,27.6,25.9,30.10,WNW,289,0.0,1.0,93,0.00,,,0.00,WeatherCatV1.23B16,2013-12-16 06:00:00,
2013-12-16 01:05:00,27.6,25.9,30.10,WNW,289,0.0,0.0,93,0.00,,,0.00,WeatherCatV1.23B16,2013-12-16 06:05:00,
2013-12-16 01:10:00,27.7,26.0,30.10,WNW,289,0.0,0.0,93,0.00,,,0.00,WeatherCatV1.23B16,2013-12-16 06:10:00,
2013-12-16 01:20:00,27.6,25.9,30.10,WNW,289,1.0,2.0,93,0.00,,,0.00,WeatherCatV1.23B16,2013-12-16 06:20:00,
2013-12-16 01:25:00,27.6,26.1,30.10,WNW,289,4.0,4.0,94,0.00,,,0.00,WeatherCatV1.23B16,2013-12-16 06:25:00,
2013-12-16 01:30:00,27.8,26.3,30.11,WNW,289,2.0,4.0,94,0.00,,,0.00,WeatherCatV1.23B16,2013-12-16 06:30:00,
2013-12-16 01:35:00,27.9,26.4,30.10,WNW,289,4.0,4.0,94,0.00,,,0.00,WeatherCatV1.23B16,2013-12-16 06:35:00,
2013-12-16 01:40:00,28.0,26.5,30.10,WNW,289,1.0,4.0,94,0.00,,,0.00,WeatherCatV1.23B16,2013-12-16 06:40:00,
2013-12-16 01:45:00,28.0,26.5,30.10,WNW,289,0.0,1.0,94,0.00,,,0.00,WeatherCatV1.23B16,2013-12-16 06:45:00,
2013-12-16 01:50:00,27.9,26.4,30.10,WNW,289,4.0,4.0,94,0.00,,,0.00,WeatherCatV1.23B16,2013-12-16 06:50:00,
2013-12-16 01:55:00,27.4,25.6,30.11,WNW,289,0.0,0.0,93,0.00,,,0.00,WeatherCatV1.23B16,2013-12-16 06:55:00,
2013-12-16 02:00:00,27.3,25.8,30.11,WNW,289,0.0,0.0,94,0.00,,,0.00,WeatherCatV1.23B16,2013-12-16 07:00:00,
2013-12-16 02:05:00,27.4,25.9,30.11,WNW,289,2.0,2.0,94,0.00,,,0.00,WeatherCatV1.23B16,2013-12-16 07:05:00,
2013-12-16 02:10:00,27.4,25.9,30.11,WNW,289,2.0,2.0,94,0.00,,,0.00,WeatherCatV1.23B16,2013-12-16 07:10:00,
2013-12-16 02:15:00,27.4,25.9,30.11,WNW,289,1.0,1.0,94,0.00,,,0.00,WeatherCatV1.23B16,2013-12-16 07:15:00,
2013-12-16 02:20:00,27.5,26.0,30.11,WNW,289,1.0,2.0,94,0.00,,,0.00,WeatherCatV1.23B16,2013-12-16 07:20:00,
2013-12-16 02:25:00,27.5,26.0,30.11,WNW,289,0.0,0.0,94,0.00,,,0.00,WeatherCatV1.23B16,2013-12-16 07:25:00,
2013-12-16 02:30:00,27.4,25.9,30.11,WNW,289,1.0,2.0,94,0.00,,,0.00,WeatherCatV1.23B16,2013-12-16 07:30:00,
2013-12-16 02:35:00,27.4,25.9,30.11,WNW,289,2.0,2.0,94,0.00,,,0.00,WeatherCatV1.23B16,2013-12-16 07:35:00,
2013-12-16 02:40:00,27.4,25.9,30.11,WNW,289,0.0,0.0,94,0.00,,,0.00,WeatherCatV1.23B16,2013-12-16 07:40:00,
2013-12-16 02:45:00,27.3,25.8,30.11,WNW,289,0.0,0.0,94,0.00,,,0.00,WeatherCatV1.23B16,2013-12-16 07:45:00,
2013-12-16 02:50:00,27.2,25.7,30.11,WNW,289,1.0,1.0,94,0.00,,,0.00,WeatherCatV1.23B16,2013-12-16 07:50:00,
2013-12-16 02:55:00,27.2,25.7,30.11,WNW,289,0.0,0.0,94,0.00,,,0.00,WeatherCatV1.23B16,2013-12-16 07:55:00,
2013-12-16 03:00:00,27.2,25.7,30.11,WNW,289,0.0,0.0,94,0.00,,,0.00,WeatherCatV1.23B16,2013-12-16 08:00:00,
2013-12-16 03:05:00,27.0,25.5,30.11,WNW,289,0.0,0.0,94,0.00,,,0.00,WeatherCatV1.23B16,2013-12-16 08:05:00,
2013-12-16 03:10:00,26.7,25.2,30.11,WNW,289,0.0,0.0,94,0.00,,,0.00,WeatherCatV1.23B16,2013-12-16 08:10:00,
2013-12-16 03:15:00,26.6,25.1,30.11,WNW,289,0.0,0.0,94,0.00,,,0.00,WeatherCatV1.23B16,2013-12-16 08:15:00,
2013-12-16 03:20:00,26.7,25.2,30.11,WNW,289,0.0,0.0,94,0.00,,,0.00,WeatherCatV1.23B16,2013-12-16 08:20:00,
2013-12-16 03:25:00,26.7,25.2,30.12,WNW,289,0.0,0.0,94,0.00,,,0.00,WeatherCatV1.23B16,2013-12-16 08:25:00,
2013-12-16 03:30:00,26.7,25.2,30.12,WNW,289,0.0,0.0,94,0.00,,,0.00,WeatherCatV1.23B16,2013-12-16 08:30:00,
2013-12-16 03:35:00,26.6,25.1,30.12,WNW,289,0.0,0.0,94,0.00,,,0.00,WeatherCatV1.23B16,2013-12-16 08:35:00,
2013-12-16 03:40:00,26.6,25.1,30.12,WNW,289,0.0,1.0,94,0.00,,,0.00,WeatherCatV1.23B16,2013-12-16 08:40:00,
2013-12-16 03:45:00,26.6,25.1,30.12,WNW,289,0.0,0.0,94,0.00,,,0.00,WeatherCatV1.23B16,2013-12-16 08:45:00,
2013-12-16 03:50:00,26.7,25.2,30.12,WNW,289,0.0,0.0,94,0.00,,,0.00,WeatherCatV1.23B16,2013-12-16 08:50:00,
2013-12-16 03:55:00,26.7,25.5,30.12,WNW,289,0.0,0.0,95,0.00,,,0.00,WeatherCatV1.23B16,2013-12-16 08:55:00,
2013-12-16 04:00:00,26.6,25.1,30.12,WNW,289,0.0,0.0,94,0.00,,,0.00,WeatherCatV1.23B16,2013-12-16 09:00:00,
2013-12-16 04:05:00,26.6,25.1,30.12,WNW,289,0.0,0.0,94,0.00,,,0.00,WeatherCatV1.23B16,2013-12-16 09:05:00,
2013-12-16 04:10:00,26.7,25.2,30.12,WNW,289,0.0,0.0,94,0.00,,,0.00,WeatherCatV1.23B16,2013-12-16 09:10:00,
2013-12-16 04:15:00,26.7,25.2,30.12,WNW,289,0.0,0.0,94,0.00,,,0.00,WeatherCatV1.23B16,2013-12-16 09:15:00,
2013-12-16 04:20:00,26.6,25.1,30.12,WNW,289,0.0,0.0,94,0.00,,,0.00,WeatherCatV1.23B16,2013-12-16 09:20:00,
2013-12-16 04:25:00,26.6,25.1,30.12,WNW,289,0.0,0.0,94,0.00,,,0.00,WeatherCatV1.23B16,2013-12-16 09:25:00,
2013-12-16 04:30:00,26.5,25.0,30.12,WNW,289,0.0,0.0,94,0.00,,,0.00,WeatherCatV1.23B16,2013-12-16 09:30:00,
2013-12-16 04:35:00,26.5,25.3,30.12,WNW,289,0.0,0.0,95,0.00,,,0.00,WeatherCatV1.23B16,2013-12-16 09:35:00,
2013-12-16 04:40:00,26.4,24.9,30.12,WNW,289,0.0,0.0,94,0.00,,,0.00,WeatherCatV1.23B16,2013-12-16 09:40:00,
2013-12-16 04:45:00,26.3,25.1,30.12,WNW,289,1.0,1.0,95,0.00,,,0.00,WeatherCatV1.23B16,2013-12-16 09:45:00,
2013-12-16 04:50:00,26.3,25.1,30.12,WNW,289,0.0,1.0,95,0.00,,,0.00,WeatherCatV1.23B16,2013-12-16 09:50:00,
2013-12-16 04:55:00,26.3,25.1,30.12,WNW,289,0.0,1.0,95,0.00,,,0.00,WeatherCatV1.23B16,2013-12-16 09:55:00,
2013-12-16 05:00:00,26.3,24.8,30.12,WNW,289,0.0,0.0,94,0.00,,,0.00,WeatherCatV1.23B16,2013-12-16 10:00:00,
2013-12-16 05:05:00,26.3,25.1,30.12,WNW,289,0.0,0.0,95,0.00,,,0.00,WeatherCatV1.23B16,2013-12-16 10:05:00,
2013-12-16 05:10:00,26.3,25.1,30.12,WNW,289,0.0,0.0,95,0.00,,,0.00,WeatherCatV1.23B16,2013-12-16 10:10:00,
2013-12-16 05:15:00,26.2,24.7,30.12,WNW,289,0.0,0.0,94,0.00,,,0.00,WeatherCatV1.23B16,2013-12-16 10:15:00,
2013-12-16 05:20:00,26.2,25.0,30.12,WNW,289,0.0,0.0,95,0.00,,,0.00,WeatherCatV1.23B16,2013-12-16 10:20:00,
2013-12-16 05:25:00,26.0,24.5,30.12,WNW,289,0.0,0.0,94,0.00,,,0.00,WeatherCatV1.23B16,2013-12-16 10:25:00,
2013-12-16 05:30:00,25.9,24.7,30.12,WNW,289,0.0,0.0,95,0.00,,,0.00,WeatherCatV1.23B16,2013-12-16 10:30:00,
2013-12-16 05:35:00,25.8,24.6,30.12,WNW,289,0.0,0.0,95,0.00,,,0.00,WeatherCatV1.23B16,2013-12-16 10:35:00,
2013-12-16 05:40:00,25.7,24.2,30.12,WNW,289,0.0,0.0,94,0.00,,,0.00,WeatherCatV1.23B16,2013-12-16 10:40:00,
2013-12-16 05:45:00,25.7,24.5,30.12,WNW,289,0.0,0.0,95,0.00,,,0.00,WeatherCatV1.23B16,2013-12-16 10:45:00,
2013-12-16 05:50:00,25.7,24.5,30.13,WNW,289,0.0,0.0,95,0.00,,,0.00,WeatherCatV1.23B16,2013-12-16 10:50:00,
2013-12-16 05:55:00,25.7,24.5,30.13,WNW,289,0.0,0.0,95,0.00,,,0.00,WeatherCatV1.23B16,2013-12-16 10:55:00,
2013-12-16 06:00:00,25.7,24.5,30.13,WNW,289,0.0,0.0,95,0.00,,,0.00,WeatherCatV1.23B16,2013-12-16 11:00:00,
2013-12-16 06:05:00,25.8,24.6,30.13,WNW,289,0.0,0.0,95,0.00,,,0.00,WeatherCatV1.23B16,2013-12-16 11:05:00,
2013-12-16 06:10:00,25.8,24.6,30.14,WNW,289,0.0,0.0,95,0.00,,,0.00,WeatherCatV1.23B16,2013-12-16 11:10:00,
2013-12-16 06:15:00,25.8,24.6,30.14,WNW,289,0.0,0.0,95,0.00,,,0.00,WeatherCatV1.23B16,2013-12-16 11:15:00,
2013-12-16 06:20:00,25.9,24.7,30.14,WNW,289,0.0,0.0,95,0.00,,,0.00,WeatherCatV1.23B16,2013-12-16 11:20:00,
2013-12-16 06:25:00,26.0,24.8,30.14,WNW,289,0.0,0.0,95,0.00,,,0.00,WeatherCatV1.23B16,2013-12-16 11:25:00,
2013-12-16 06:30:00,25.9,24.7,30.14,WNW,289,0.0,0.0,95,0.00,,,0.00,WeatherCatV1.23B16,2013-12-16 11:30:00,
2013-12-16 06:35:00,25.8,24.6,30.14,WNW,289,0.0,0.0,95,0.00,,,0.00,WeatherCatV1.23B16,2013-12-16 11:35:00,
2013-12-16 06:40:00,25.7,24.5,30.14,WNW,289,0.0,0.0,95,0.00,,,0.00,WeatherCatV1.23B16,2013-12-16 11:40:00,
2013-12-16 06:45:00,25.6,24.4,30.14,WNW,289,0.0,0.0,95,0.00,,,0.00,WeatherCatV1.23B16,2013-12-16 11:45:00,
2013-12-16 06:50:00,25.5,24.3,30.14,WNW,289,0.0,0.0,95,0.00,,,0.00,WeatherCatV1.23B16,2013-12-16 11:50:00,
2013-12-16 06:55:00,25.4,24.2,30.14,WNW,289,0.0,0.0,95,0.00,,,0.00,WeatherCatV1.23B16,2013-12-16 11:55:00,
2013-12-16 07:00:00,25.3,24.1,30.14,WNW,289,0.0,0.0,95,0.00,,,0.00,WeatherCatV1.23B16,2013-12-16 12:00:00,
2013-12-16 07:05:00,25.3,24.1,30.15,WNW,289,0.0,0.0,95,0.00,,,0.00,WeatherCatV1.23B16,2013-12-16 12:05:00,
2013-12-16 07:15:00,25.4,24.2,30.15,WNW,289,0.0,0.0,95,0.00,,,0.00,WeatherCatV1.23B16,2013-12-16 12:15:00,
2013-12-16 07:20:00,25.4,24.2,30.15,WNW,289,0.0,0.0,95,0.00,,,0.00,WeatherCatV1.23B16,2013-12-16 12:20:00,
2013-12-16 07:25:00,25.5,24.3,30.16,WNW,289,0.0,0.0,95,0.00,,,0.00,WeatherCatV1.23B16,2013-12-16 12:25:00,
2013-12-16 07:30:00,25.4,24.2,30.16,WNW,289,0.0,0.0,95,0.00,,,0.00,WeatherCatV1.23B16,2013-12-16 12:30:00,
2013-12-16 07:35:00,25.3,24.1,30.16,WNW,289,0.0,0.0,95,0.00,,,0.00,WeatherCatV1.23B16,2013-12-16 12:35:00,
2013-12-16 07:40:00,25.3,24.1,30.16,WNW,289,0.0,0.0,95,0.00,,,0.00,WeatherCatV1.23B16,2013-12-16 12:40:00,
2013-12-16 07:45:00,25.3,24.1,30.16,WNW,289,0.0,0.0,95,0.00,,,0.00,WeatherCatV1.23B16,2013-12-16 12:45:00,
2013-12-16 07:50:00,25.3,24.1,30.16,WNW,289,0.0,0.0,95,0.00,,,0.00,WeatherCatV1.23B16,2013-12-16 12:50:00,
2013-12-16 07:55:00,25.3,24.1,30.16,WNW,289,0.0,0.0,95,0.00,,,0.00,WeatherCatV1.23B16,2013-12-16 12:55:00,
2013-12-16 08:00:00,25.4,24.2,30.16,WNW,289,0.0,0.0,95,0.00,,,0.00,WeatherCatV1.23B16,2013-12-16 13:00:00,
2013-12-16 08:05:00,25.6,24.4,30.17,WNW,289,0.0,0.0,95,0.00,,,0.00,WeatherCatV1.23B16,2013-12-16 13:05:00,
2013-12-16 08:10:00,25.8,24.6,30.17,WNW,289,0.0,0.0,95,0.00,,,0.00,WeatherCatV1.23B16,2013-12-16 13:10:00,
2013-12-16 08:15:00,26.1,24.9,30.17,WNW,289,0.0,0.0,95,0.00,,,0.00,WeatherCatV1.23B16,2013-12-16 13:15:00,
2013-12-16 08:20:00,26.6,25.4,30.17,WNW,289,0.0,0.0,95,0.00,,,0.00,WeatherCatV1.23B16,2013-12-16 13:20:00,
2013-12-16 08:25:00,26.9,25.7,30.17,WNW,289,0.0,0.0,95,0.00,,,0.00,WeatherCatV1.23B16,2013-12-16 13:25:00,
2013-12-16 08:30:00,27.4,26.4,30.17,WNW,289,0.0,0.0,96,0.00,,,0.00,WeatherCatV1.23B16,2013-12-16 13:30:00,
2013-12-16 08:35:00,27.7,26.5,30.17,WNW,289,0.0,0.0,95,0.00,,,0.00,WeatherCatV1.23B16,2013-12-16 13:35:00,
2013-12-16 08:40:00,28.3,27.3,30.17,WNW,289,0.0,2.0,96,0.00,,,0.00,WeatherCatV1.23B16,2013-12-16 13:40:00,
2013-12-16 08:45:00,28.8,27.8,30.17,WNW,289,0.0,0.0,96,0.00,,,0.00,WeatherCatV1.23B16,2013-12-16 13:45:00,
2013-12-16 08:50:00,29.4,28.4,30.17,WNW,289,0.0,0.0,96,0.00,,,0.00,WeatherCatV1.23B16,2013-12-16 13:50:00,
2013-12-16 08:55:00,29.9,28.9,30.18,WNW,289,0.0,0.0,96,0.00,,,0.00,WeatherCatV1.23B16,2013-12-16 13:55:00,
2013-12-16 09:00:00,30.6,29.6,30.18,WNW,289,0.0,0.0,96,0.00,,,0.00,WeatherCatV1.23B16,2013-12-16 14:00:00,
2013-12-16 09:05:00,31.4,30.4,30.18,WNW,289,0.0,0.0,96,0.00,,,0.00,WeatherCatV1.23B16,2013-12-16 14:05:00,
2013-12-16 09:10:00,32.3,31.3,30.18,WNW,289,0.0,0.0,96,0.00,,,0.00,WeatherCatV1.23B16,2013-12-16 14:10:00,
2013-12-16 09:15:00,33.2,32.2,30.18,WNW,289,0.0,0.0,96,0.00,,,0.00,WeatherCatV1.23B16,2013-12-16 14:15:00,
2013-12-16 09:20:00,33.8,32.8,30.18,WNW,289,0.0,0.0,96,0.00,,,0.00,WeatherCatV1.23B16,2013-12-16 14:20:00,
2013-12-16 09:25:00,34.3,33.0,30.18,WNW,289,0.0,2.0,95,0.00,,,0.00,WeatherCatV1.23B16,2013-12-16 14:25:00,
2013-12-16 09:30:00,34.7,33.2,30.18,WNW,289,1.0,2.0,94,0.00,,,0.00,WeatherCatV1.23B16,2013-12-16 14:30:00,
2013-12-16 09:35:00,35.2,33.4,30.18,WNW,289,1.0,4.0,93,0.00,,,0.00,WeatherCatV1.23B16,2013-12-16 14:35:00,
2013-12-16 09:40:00,36.0,33.6,30.18,WNW,289,1.0,2.0,91,0.00,,,0.00,WeatherCatV1.23B16,2013-12-16 14:40:00,
2013-12-16 09:45:00,36.7,33.5,30.18,WNW,289,0.0,0.0,88,0.00,,,0.00,WeatherCatV1.23B16,2013-12-16 14:45:00,
2013-12-16 09:50:00,37.6,33.8,30.19,WNW,289,0.0,2.0,86,0.00,,,0.00,WeatherCatV1.23B16,2013-12-16 14:50:00,
2013-12-16 09:55:00,38.7,33.7,30.18,WNW,289,4.0,4.0,82,0.00,,,0.00,WeatherCatV1.23B16,2013-12-16 14:55:00,
2013-12-16 10:00:00,40.0,35.0,30.19,WNW,289,2.0,4.0,82,0.00,,,0.00,WeatherCatV1.23B16,2013-12-16 15:00:00,
2013-12-16 10:05:00,41.1,34.8,30.18,SE,126,5.0,6.0,78,0.00,,,0.00,WeatherCatV1.23B16,2013-12-16 15:05:00,
2013-12-16 10:10:00,42.4,34.0,30.19,ESE,121,6.0,7.0,72,0.00,,,0.00,WeatherCatV1.23B16,2013-12-16 15:10:00,
2013-12-16 10:15:00,43.6,34.1,30.19,SE,128,5.0,9.0,69,0.00,,,0.00,WeatherCatV1.23B16,2013-12-16 15:15:00,
2013-12-16 10:20:00,44.5,33.9,30.18,SE,134,6.0,10.0,66,0.00,,,0.00,WeatherCatV1.23B16,2013-12-16 15:20:00,
2013-12-16 10:25:00,45.0,33.6,30.19,ESE,121,6.0,8.0,64,0.00,,,0.00,WeatherCatV1.23B16,2013-12-16 15:25:00,
2013-12-16 10:30:00,45.5,33.7,30.18,ESE,114,6.0,8.0,63,0.00,,,0.00,WeatherCatV1.23B16,2013-12-16 15:30:00,
2013-12-16 10:35:00,45.9,34.4,30.18,ESE,119,6.0,9.0,64,0.00,,,0.00,WeatherCatV1.23B16,2013-12-16 15:35:00,
2013-12-16 10:40:00,46.3,34.4,30.18,SE,126,7.0,9.0,63,0.00,,,0.00,WeatherCatV1.23B16,2013-12-16 15:40:00,
2013-12-16 10:45:00,46.6,34.3,30.18,ESE,115,6.0,7.0,62,0.00,,,0.00,WeatherCatV1.23B16,2013-12-16 15:45:00,
2013-12-16 10:50:00,46.8,33.7,30.18,ESE,119,6.0,8.0,60,0.00,,,0.00,WeatherCatV1.23B16,2013-12-16 15:50:00,
2013-12-16 10:55:00,47.2,33.2,30.18,SE,144,5.0,6.0,58,0.00,,,0.00,WeatherCatV1.23B16,2013-12-16 15:55:00,
2013-12-16 11:00:00,47.8,32.0,30.18,SSW,200,0.0,5.0,54,0.00,,,0.00,WeatherCatV1.23B16,2013-12-16 16:00:00,
2013-12-16 11:05:00,48.5,32.6,30.18,South,182,2.0,6.0,54,0.00,,,0.00,WeatherCatV1.23B16,2013-12-16 16:05:00,
2013-12-16 11:10:00,49.2,32.8,30.18,SE,132,2.0,6.0,53,0.00,,,0.00,WeatherCatV1.23B16,2013-12-16 16:10:00,
2013-12-16 11:15:00,49.7,32.3,30.18,ESE,117,8.0,10.0,51,0.00,,,0.00,WeatherCatV1.23B16,2013-12-16 16:15:00,
2013-12-16 11:20:00,49.9,32.5,30.18,SE,126,5.0,7.0,51,0.00,,,0.00,WeatherCatV1.23B16,2013-12-16 16:20:00,
2013-12-16 11:25:00,50.3,31.9,30.18,SSE,155,7.0,8.0,49,0.00,,,0.00,WeatherCatV1.23B16,2013-12-16 16:25:00,
2013-12-16 11:30:00,50.5,31.5,30.18,ESE,120,7.0,12.0,48,0.00,,,0.00,WeatherCatV1.23B16,2013-12-16 16:30:00,
2013-12-16 11:35:00,50.8,31.8,30.18,SSE,166,8.0,11.0,48,0.00,,,0.00,WeatherCatV1.23B16,2013-12-16 16:35:00,
2013-12-16 11:40:00,50.8,31.8,30.17,SSE,153,8.0,13.0,48,0.00,,,0.00,WeatherCatV1.23B16,2013-12-16 16:40:00,
2013-12-16 11:45:00,50.9,31.9,30.17,ESE,113,9.0,12.0,48,0.00,,,0.00,WeatherCatV1.23B16,2013-12-16 16:45:00,
2013-12-16 11:50:00,51.0,31.5,30.17,ESE,111,9.0,12.0,47,0.00,,,0.00,WeatherCatV1.23B16,2013-12-16 16:50:00,
2013-12-16 11:55:00,51.1,33.1,30.17,ESE,112,6.0,12.0,50,0.00,,,0.00,WeatherCatV1.23B16,2013-12-16 16:55:00,
2013-12-16 12:00:00,51.4,31.9,30.17,SE,130,7.0,9.0,47,0.00,,,0.00,WeatherCatV1.23B16,2013-12-16 17:00:00,
2013-12-16 12:05:00,51.8,30.6,30.16,ESE,116,6.0,9.0,44,0.00,,,0.00,WeatherCatV1.23B16,2013-12-16 17:05:00,
2013-12-16 12:10:00,52.3,29.3,30.16,SSE,160,10.0,12.0,41,0.00,,,0.00,WeatherCatV1.23B16,2013-12-16 17:10:00,
2013-12-16 12:15:00,53.0,29.3,30.15,SSE,157,4.0,6.0,40,0.00,,,0.00,WeatherCatV1.23B16,2013-12-16 17:15:00,
2013-12-16 12:20:00,53.5,27.9,30.15,SE,135,10.0,11.0,37,0.00,,,0.00,WeatherCatV1.23B16,2013-12-16 17:20:00,
2013-12-16 12:25:00,53.9,28.2,30.15,ESE,115,9.0,13.0,37,0.00,,,0.00,WeatherCatV1.23B16,2013-12-16 17:25:00,
2013-12-16 12:30:00,53.9,27.6,30.14,SE,143,15.0,17.0,36,0.00,,,0.00,WeatherCatV1.23B16,2013-12-16 17:30:00,
2013-12-16 12:35:00,53.9,26.9,30.14,SSE,159,15.0,19.0,35,0.00,,,0.00,WeatherCatV1.23B16,2013-12-16 17:35:00,
2013-12-16 12:40:00,53.6,27.3,30.14,WSW,253,3.0,18.0,36,0.00,,,0.00,WeatherCatV1.23B16,2013-12-16 17:40:00,
2013-12-16 12:45:00,53.7,29.3,30.14,WSW,238,11.0,12.0,39,0.00,,,0.00,WeatherCatV1.23B16,2013-12-16 17:45:00,
2013-12-16 12:50:00,53.7,28.1,30.14,South,174,10.0,10.0,37,0.00,,,0.00,WeatherCatV1.23B16,2013-12-16 17:50:00,
2013-12-16 12:55:00,53.4,28.4,30.14,SSE,148,11.0,15.0,38,0.00,,,0.00,WeatherCatV1.23B16,2013-12-16 17:55:00,
2013-12-16 13:00:00,53.1,27.5,30.13,SSE,162,13.0,18.0,37,0.00,,,0.00,WeatherCatV1.23B16,2013-12-16 18:00:00,
2013-12-16 13:05:00,52.9,28.6,30.13,SE,129,11.0,15.0,39,0.00,,,0.00,WeatherCatV1.23B16,2013-12-16 18:05:00,
2013-12-16 13:10:00,53.4,30.3,30.13,SE,144,13.0,15.0,41,0.00,,,0.00,WeatherCatV1.23B16,2013-12-16 18:10:00,
2013-12-16 13:15:00,53.3,27.7,30.13,SSW,196,10.0,15.0,37,0.00,,,0.00,WeatherCatV1.23B16,2013-12-16 18:15:00,
2013-12-16 13:20:00,53.2,27.6,30.13,SE,140,18.0,20.0,37,0.00,,,0.00,WeatherCatV1.23B16,2013-12-16 18:20:00,
2013-12-16 13:25:00,53.1,26.9,30.13,SE,128,14.0,18.0,36,0.00,,,0.00,WeatherCatV1.23B16,2013-12-16 18:25:00,
2013-12-16 13:30:00,53.3,27.0,30.13,SE,136,17.0,18.0,36,0.00,,,0.00,WeatherCatV1.23B16,2013-12-16 18:30:00,
2013-12-16 13:35:00,53.3,27.0,30.12,SE,128,11.0,18.0,36,0.00,,,0.00,WeatherCatV1.23B16,2013-12-16 18:35:00,
2013-12-16 13:40:00,53.6,27.3,30.12,SE,135,8.0,15.0,36,0.00,,,0.00,WeatherCatV1.23B16,2013-12-16 18:40:00,
2013-12-16 13:45:00,54.0,27.0,30.12,SSE,160,12.0,17.0,35,0.00,,,0.00,WeatherCatV1.23B16,2013-12-16 18:45:00,
2013-12-16 13:50:00,54.2,26.5,30.12,SSW,206,6.0,17.0,34,0.00,,,0.00,WeatherCatV1.23B16,2013-12-16 18:50:00,
2013-12-16 13:55:00,54.4,26.6,30.11,SSE,156,5.0,11.0,34,0.00,,,0.00,WeatherCatV1.23B16,2013-12-16 18:55:00,
2013-12-16 14:00:00,54.6,27.5,30.11,SE,138,4.0,7.0,35,0.00,,,0.00,WeatherCatV1.23B16,2013-12-16 19:00:00,
2013-12-16 14:05:00,54.9,25.6,30.11,South,176,9.0,20.0,32,0.00,,,0.00,WeatherCatV1.23B16,2013-12-16 19:05:00,
2013-12-16 14:10:00,54.9,26.3,30.11,SSE,153,9.0,14.0,33,0.00,,,0.00,WeatherCatV1.23B16,2013-12-16 19:10:00,
2013-12-16 14:15:00,55.0,24.9,30.11,SSE,158,10.0,15.0,31,0.00,,,0.00,WeatherCatV1.23B16,2013-12-16 19:15:00,
2013-12-16 14:20:00,54.9,24.8,30.11,SE,138,13.0,15.0,31,0.00,,,0.00,WeatherCatV1.23B16,2013-12-16 19:20:00,
2013-12-16 14:25:00,55.0,25.7,30.11,SE,128,14.0,14.0,32,0.00,,,0.00,WeatherCatV1.23B16,2013-12-16 19:25:00,
2013-12-16 14:30:00,55.2,26.6,30.11,SSE,148,14.0,15.0,33,0.00,,,0.00,WeatherCatV1.23B16,2013-12-16 19:30:00,
2013-12-16 14:35:00,55.1,25.8,30.11,SW,220,4.0,19.0,32,0.00,,,0.00,WeatherCatV1.23B16,2013-12-16 19:35:00,
2013-12-16 14:40:00,55.0,25.7,30.11,SSE,163,8.0,13.0,32,0.00,,,0.00,WeatherCatV1.23B16,2013-12-16 19:40:00,
2013-12-16 14:45:00,55.1,26.5,30.11,SSE,149,11.0,15.0,33,0.00,,,0.00,WeatherCatV1.23B16,2013-12-16 19:45:00,
2013-12-16 14:50:00,55.1,26.5,30.11,South,180,9.0,9.0,33,0.00,,,0.00,WeatherCatV1.23B16,2013-12-16 19:50:00,
2013-12-16 14:55:00,55.2,26.6,30.11,SSE,149,2.0,11.0,33,0.00,,,0.00,WeatherCatV1.23B16,2013-12-16 19:55:00,
2013-12-16 15:00:00,55.3,26.7,30.11,South,169,9.0,13.0,33,0.00,,,0.00,WeatherCatV1.23B16,2013-12-16 20:00:00,
2013-12-16 15:05:00,55.3,26.7,30.11,SW,229,8.0,11.0,33,0.00,,,0.00,WeatherCatV1.23B16,2013-12-16 20:05:00,
2013-12-16 15:10:00,55.3,28.1,30.12,SE,136,5.0,7.0,35,0.00,,,0.00,WeatherCatV1.23B16,2013-12-16 20:10:00,
2013-12-16 15:15:00,55.4,27.5,30.11,SE,126,12.0,17.0,34,0.00,,,0.00,WeatherCatV1.23B16,2013-12-16 20:15:00,
2013-12-16 15:20:00,55.0,27.1,30.12,SE,134,11.0,17.0,34,0.00,,,0.00,WeatherCatV1.23B16,2013-12-16 20:20:00,
2013-12-16 15:25:00,54.9,27.1,30.12,SSE,152,12.0,18.0,34,0.00,,,0.00,WeatherCatV1.23B16,2013-12-16 20:25:00,
2013-12-16 15:30:00,54.8,27.7,30.12,South,179,6.0,13.0,35,0.00,,,0.00,WeatherCatV1.23B16,2013-12-16 20:30:00,
2013-12-16 15:35:00,54.8,27.7,30.11,SE,136,18.0,22.0,35,0.00,,,0.00,WeatherCatV1.23B16,2013-12-16 20:35:00,
2013-12-16 15:40:00,54.6,28.2,30.12,SSW,211,12.0,14.0,36,0.00,,,0.00,WeatherCatV1.23B16,2013-12-16 20:40:00,
2013-12-16 15:45:00,54.6,27.5,30.12,SSE,157,11.0,15.0,35,0.00,,,0.00,WeatherCatV1.23B16,2013-12-16 20:45:00,
2013-12-16 15:50:00,54.1,27.8,30.12,ESE,121,18.0,18.0,36,0.00,,,0.00,WeatherCatV1.23B16,2013-12-16 20:50:00,
2013-12-16 15:55:00,54.0,28.3,30.12,SE,130,9.0,16.0,37,0.00,,,0.00,WeatherCatV1.23B16,2013-12-16 20:55:00,
2013-12-16 16:00:00,53.8,28.8,30.12,SE,132,17.0,19.0,38,0.00,,,0.00,WeatherCatV1.23B16,2013-12-16 21:00:00,
2013-12-16 16:05:00,53.6,28.0,30.12,SE,137,8.0,12.0,37,0.00,,,0.00,WeatherCatV1.23B16,2013-12-16 21:05:00,
2013-12-16 16:10:00,53.7,28.7,30.12,SSE,157,11.0,12.0,38,0.00,,,0.00,WeatherCatV1.23B16,2013-12-16 21:10:00,
2013-12-16 16:15:00,53.6,28.6,30.12,SE,141,4.0,8.0,38,0.00,,,0.00,WeatherCatV1.23B16,2013-12-16 21:15:00,
2013-12-16 16:20:00,53.6,28.0,30.12,SSE,149,8.0,12.0,37,0.00,,,0.00,WeatherCatV1.23B16,2013-12-16 21:20:00,
2013-12-16 16:25:00,53.3,29.0,30.12,ESE,121,9.0,9.0,39,0.00,,,0.00,WeatherCatV1.23B16,2013-12-16 21:25:00,
2013-12-16 16:30:00,53.0,29.3,30.12,SSE,161,4.0,7.0,40,0.00,,,0.00,WeatherCatV1.23B16,2013-12-16 21:30:00,
2013-12-16 16:35:00,53.0,29.3,30.12,SSE,152,1.0,7.0,40,0.00,,,0.00,WeatherCatV1.23B16,2013-12-16 21:35:00,
2013-12-16 16:40:00,52.9,29.2,30.12,SSE,155,2.0,6.0,40,0.00,,,0.00,WeatherCatV1.23B16,2013-12-16 21:40:00,
2013-12-16 16:45:00,52.9,29.2,30.12,South,181,4.0,8.0,40,0.00,,,0.00,WeatherCatV1.23B16,2013-12-16 21:45:00,
2013-12-16 16:50:00,52.6,29.6,30.12,SSE,155,5.0,7.0,41,0.00,,,0.00,WeatherCatV1.23B16,2013-12-16 21:50:00,
2013-12-16 16:55:00,52.2,29.2,30.12,SSE,158,5.0,11.0,41,0.00,,,0.00,WeatherCatV1.23B16,2013-12-16 21:55:00,
2013-12-16 17:00:00,51.9,29.0,30.12,SE,124,4.0,5.0,41,0.00,,,0.00,WeatherCatV1.23B16,2013-12-16 22:00:00,
2013-12-16 17:05:00,51.5,29.2,30.13,SSE,157,5.0,8.0,42,0.00,,,0.00,WeatherCatV1.23B16,2013-12-16 22:05:00,
2013-12-16 17:10:00,51.1,28.8,30.13,SSE,153,4.0,7.0,42,0.00,,,0.00,WeatherCatV1.23B16,2013-12-16 22:10:00,
2013-12-16 17:15:00,50.7,29.0,30.13,SE,130,11.0,13.0,43,0.00,,,0.00,WeatherCatV1.23B16,2013-12-16 22:15:00,
2013-12-16 17:20:00,50.5,28.9,30.13,SE,141,8.0,15.0,43,0.00,,,0.00,WeatherCatV1.23B16,2013-12-16 22:20:00,
2013-12-16 17:25:00,50.0,29.5,30.13,SE,133,5.0,5.0,45,0.00,,,0.00,WeatherCatV1.23B16,2013-12-16 22:25:00,
2013-12-16 17:30:00,49.7,29.2,30.13,ESE,123,5.0,6.0,45,0.00,,,0.00,WeatherCatV1.23B16,2013-12-16 22:30:00,
2013-12-16 17:35:00,49.5,29.6,30.13,SE,138,1.0,4.0,46,0.00,,,0.00,WeatherCatV1.23B16,2013-12-16 22:35:00,
2013-12-16 17:40:00,49.2,29.8,30.14,SE,134,4.0,7.0,47,0.00,,,0.00,WeatherCatV1.23B16,2013-12-16 22:40:00,
2013-12-16 17:45:00,48.9,31.1,30.14,ESE,111,5.0,5.0,50,0.00,,,0.00,WeatherCatV1.23B16,2013-12-16 22:45:00,
2013-12-16 17:50:00,48.3,31.5,30.14,SE,139,4.0,7.0,52,0.00,,,0.00,WeatherCatV1.23B16,2013-12-16 22:50:00,
2013-12-16 17:55:00,47.9,31.6,30.14,ESE,122,4.0,7.0,53,0.00,,,0.00,WeatherCatV1.23B16,2013-12-16 22:55:00,
2013-12-16 18:00:00,47.6,31.8,30.14,SE,136,2.0,4.0,54,0.00,,,0.00,WeatherCatV1.23B16,2013-12-16 23:00:00,
2013-12-16 18:05:00,47.3,31.5,30.15,SE,136,4.0,4.0,54,0.00,,,0.00,WeatherCatV1.23B16,2013-12-16 23:05:00,
2013-12-16 18:10:00,47.0,31.7,30.15,South,186,3.0,6.0,55,0.00,,,0.00,WeatherCatV1.23B16,2013-12-16 23:10:00,
2013-12-16 18:15:00,46.8,31.9,30.15,SSE,150,2.0,5.0,56,0.00,,,0.00,WeatherCatV1.23B16,2013-12-16 23:15:00,
2013-12-16 18:25:00,46.4,31.6,30.15,SSE,158,0.0,4.0,56,0.00,,,0.00,WeatherCatV1.23B16,2013-12-16 23:25:00,
2013-12-16 18:30:00,46.2,31.8,30.15,SSE,153,1.0,4.0,57,0.00,,,0.00,WeatherCatV1.23B16,2013-12-16 23:30:00,
2013-12-16 18:35:00,46.0,32.1,30.16,WSW,243,4.0,4.0,58,0.00,,,0.00,WeatherCatV1.23B16,2013-12-16 23:35:00,
2013-12-16 18:40:00,45.9,32.0,30.16,SW,219,3.0,7.0,58,0.00,,,0.00,WeatherCatV1.23B16,2013-12-16 23:40:00,
2013-12-16 18:45:00,45.9,32.0,30.16,SW,226,2.0,3.0,58,0.00,,,0.00,WeatherCatV1.23B16,2013-12-16 23:45:00,
2013-12-16 18:50:00,45.8,31.9,30.16,SW,230,2.0,4.0,58,0.00,,,0.00,WeatherCatV1.23B16,2013-12-16 23:50:00,
2013-12-16 18:55:00,45.6,31.7,30.16,SW,227,3.0,4.0,58,0.00,,,0.00,WeatherCatV1.23B16,2013-12-16 23:55:00,
2013-12-16 19:00:00,45.5,32.0,30.16,SW,214,4.0,5.0,59,0.00,,,0.00,WeatherCatV1.23B16,2013-12-17 00:00:00,
2013-12-16 19:05:00,45.5,32.0,30.16,SW,215,2.0,4.0,59,0.00,,,0.00,WeatherCatV1.23B16,2013-12-17 00:05:00,
2013-12-16 19:10:00,45.4,31.9,30.16,SW,215,2.0,4.0,59,0.00,,,0.00,WeatherCatV1.23B16,2013-12-17 00:10:00,
2013-12-16 19:15:00,45.3,31.8,30.16,SW,235,1.0,3.0,59,0.00,,,0.00,WeatherCatV1.23B16,2013-12-17 00:15:00,
2013-12-16 19:25:00,44.9,32.7,30.16,SW,235,0.0,1.0,62,0.00,,,0.00,WeatherCatV1.23B16,2013-12-17 00:25:00,
2013-12-16 19:30:00,44.5,31.9,30.16,SW,235,0.0,1.0,61,0.00,,,0.00,WeatherCatV1.23B16,2013-12-17 00:30:00,
2013-12-16 19:35:00,44.2,32.4,30.16,SW,235,0.0,2.0,63,0.00,,,0.00,WeatherCatV1.23B16,2013-12-17 00:35:00,
2013-12-16 19:40:00,43.7,31.9,30.16,SW,234,2.0,3.0,63,0.00,,,0.00,WeatherCatV1.23B16,2013-12-17 00:40:00,
2013-12-16 19:45:00,43.2,31.9,30.16,SW,219,0.0,0.0,64,0.00,,,0.00,WeatherCatV1.23B16,2013-12-17 00:45:00,
2013-12-16 19:50:00,42.8,31.5,30.16,SW,219,0.0,0.0,64,0.00,,,0.00,WeatherCatV1.23B16,2013-12-17 00:50:00,
2013-12-16 19:55:00,42.4,31.5,30.16,SW,219,0.0,0.0,65,0.00,,,0.00,WeatherCatV1.23B16,2013-12-17 00:55:00,
2013-12-16 20:00:00,41.9,32.1,30.17,SW,219,0.0,0.0,68,0.00,,,0.00,WeatherCatV1.23B16,2013-12-17 01:00:00,
2013-12-16 20:05:00,41.4,31.6,30.17,SW,219,0.0,0.0,68,0.00,,,0.00,WeatherCatV1.23B16,2013-12-17 01:05:00,
2013-12-16 20:10:00,41.0,32.0,30.16,SW,219,0.0,0.0,70,0.00,,,0.00,WeatherCatV1.23B16,2013-12-17 01:10:00,
2013-12-16 20:15:00,40.6,32.0,30.16,SW,219,0.0,0.0,71,0.00,,,0.00,WeatherCatV1.23B16,2013-12-17 01:15:00,
2013-12-16 20:20:00,40.2,32.2,30.16,SW,219,0.0,0.0,73,0.00,,,0.00,WeatherCatV1.23B16,2013-12-17 01:20:00,
2013-12-16 20:25:00,39.8,32.2,30.16,SW,219,0.0,0.0,74,0.00,,,0.00,WeatherCatV1.23B16,2013-12-17 01:25:00,
2013-12-16 20:30:00,39.5,31.9,30.16,SSW,213,0.0,1.0,74,0.00,,,0.00,WeatherCatV1.23B16,2013-12-17 01:30:00,
2013-12-16 20:35:00,39.2,32.0,30.17,SSW,213,0.0,0.0,75,0.00,,,0.00,WeatherCatV1.23B16,2013-12-17 01:35:00,
2013-12-16 20:40:00,38.9,32.0,30.17,SSW,213,0.0,0.0,76,0.00,,,0.00,WeatherCatV1.23B16,2013-12-17 01:40:00,
2013-12-16 20:45:00,38.6,31.7,30.17,SSW,213,0.0,0.0,76,0.00,,,0.00,WeatherCatV1.23B16,2013-12-17 01:45:00,
2013-12-16 20:50:00,38.3,31.7,30.17,SSW,213,0.0,0.0,77,0.00,,,0.00,WeatherCatV1.23B16,2013-12-17 01:50:00,
2013-12-16 20:55:00,38.0,31.8,30.16,SSW,213,0.0,0.0,78,0.00,,,0.00,WeatherCatV1.23B16,2013-12-17 01:55:00,
2013-12-16 21:00:00,37.8,31.9,30.16,SSW,213,2.0,2.0,79,0.00,,,0.00,WeatherCatV1.23B16,2013-12-17 02:00:00,
2013-12-16 21:05:00,37.6,31.7,30.16,SSW,213,0.0,0.0,79,0.00,,,0.00,WeatherCatV1.23B16,2013-12-17 02:05:00,
2013-12-16 21:10:00,37.5,31.9,30.16,SSW,213,0.0,1.0,80,0.00,,,0.00,WeatherCatV1.23B16,2013-12-17 02:10:00,
2013-12-16 21:15:00,37.3,31.7,30.16,SSW,213,2.0,2.0,80,0.00,,,0.00,WeatherCatV1.23B16,2013-12-17 02:15:00,
2013-12-16 21:20:00,37.1,31.5,30.16,SSW,213,1.0,2.0,80,0.00,,,0.00,WeatherCatV1.23B16,2013-12-17 02:20:00,
2013-12-16 21:25:00,36.9,31.6,30.15,SSW,213,0.0,3.0,81,0.00,,,0.00,WeatherCatV1.23B16,2013-12-17 02:25:00,
2013-12-16 21:30:00,36.7,31.4,30.16,SSW,213,0.0,0.0,81,0.00,,,0.00,WeatherCatV1.23B16,2013-12-17 02:30:00,
2013-12-16 21:35:00,36.6,31.3,30.16,SSW,213,1.0,1.0,81,0.00,,,0.00,WeatherCatV1.23B16,2013-12-17 02:35:00,
2013-12-16 21:40:00,36.6,31.6,30.16,SSW,213,2.0,2.0,82,0.00,,,0.00,WeatherCatV1.23B16,2013-12-17 02:40:00,
2013-12-16 21:50:00,36.4,31.4,30.16,SW,216,1.0,2.0,82,0.00,,,0.00,WeatherCatV1.23B16,2013-12-17 02:50:00,
2013-12-16 21:55:00,36.4,31.4,30.17,SW,216,0.0,1.0,82,0.00,,,0.00,WeatherCatV1.23B16,2013-12-17 02:55:00,
2013-12-16 22:00:00,36.2,31.5,30.16,SW,216,0.0,0.0,83,0.00,,,0.00,WeatherCatV1.23B16,2013-12-17 03:00:00,
2013-12-16 22:05:00,36.1,31.1,30.17,SW,216,0.0,0.0,82,0.00,,,0.00,WeatherCatV1.23B16,2013-12-17 03:05:00,
2013-12-16 22:10:00,36.0,31.4,30.17,SW,216,0.0,0.0,83,0.00,,,0.00,WeatherCatV1.23B16,2013-12-17 03:10:00,
2013-12-16 22:15:00,35.9,31.2,30.16,SW,216,0.0,0.0,83,0.00,,,0.00,WeatherCatV1.23B16,2013-12-17 03:15:00,
2013-12-16 22:20:00,35.8,31.1,30.17,SW,216,0.0,0.0,83,0.00,,,0.00,WeatherCatV1.23B16,2013-12-17 03:20:00,
2013-12-16 22:25:00,35.7,31.0,30.17,SW,216,0.0,0.0,83,0.00,,,0.00,WeatherCatV1.23B16,2013-12-17 03:25:00,
2013-12-16 22:30:00,35.6,31.0,30.17,SW,216,0.0,0.0,83,0.00,,,0.00,WeatherCatV1.23B16,2013-12-17 03:30:00,
2013-12-16 22:35:00,35.4,31.1,30.16,SW,216,0.0,0.0,84,0.00,,,0.00,WeatherCatV1.23B16,2013-12-17 03:35:00,
2013-12-16 22:40:00,35.2,30.9,30.16,SW,216,0.0,0.0,84,0.00,,,0.00,WeatherCatV1.23B16,2013-12-17 03:40:00,
2013-12-16 22:45:00,35.0,30.7,30.16,SW,216,0.0,0.0,84,0.00,,,0.00,WeatherCatV1.23B16,2013-12-17 03:45:00,
2013-12-16 22:50:00,34.8,30.5,30.16,SW,216,0.0,0.0,84,0.00,,,0.00,WeatherCatV1.23B16,2013-12-17 03:50:00,
2013-12-16 22:55:00,34.8,30.5,30.15,SW,216,0.0,0.0,84,0.00,,,0.00,WeatherCatV1.23B16,2013-12-17 03:55:00,
2013-12-16 23:00:00,34.7,30.7,30.15,SW,216,0.0,3.0,85,0.00,,,0.00,WeatherCatV1.23B16,2013-12-17 04:00:00,
2013-12-16 23:05:00,34.7,30.7,30.15,SW,216,2.0,2.0,85,0.00,,,0.00,WeatherCatV1.23B16,2013-12-17 04:05:00,
2013-12-16 23:10:00,34.8,30.8,30.16,SW,216,1.0,3.0,85,0.00,,,0.00,WeatherCatV1.23B16,2013-12-17 04:10:00,
2013-12-16 23:15:00,35.0,30.7,30.16,SW,216,2.0,3.0,84,0.00,,,0.00,WeatherCatV1.23B16,2013-12-17 04:15:00,
2013-12-16 23:20:00,35.2,30.9,30.16,SW,216,0.0,0.0,84,0.00,,,0.00,WeatherCatV1.23B16,2013-12-17 04:20:00,
2013-12-16 23:25:00,35.2,30.9,30.16,SW,216,0.0,0.0,84,0.00,,,0.00,WeatherCatV1.23B16,2013-12-17 04:25:00,
2013-12-16 23:30:00,35.0,30.7,30.16,SW,216,0.0,0.0,84,0.00,,,0.00,WeatherCatV1.23B16,2013-12-17 04:30:00,
2013-12-16 23:35:00,34.8,30.8,30.16,SW,216,0.0,0.0,85,0.00,,,0.00,WeatherCatV1.23B16,2013-12-17 04:35:00,
2013-12-16 23:40:00,34.6,30.6,30.16,SW,216,0.0,0.0,85,0.00,,,0.00,WeatherCatV1.23B16,2013-12-17 04:40:00,
2013-12-16 23:45:00,34.5,30.8,30.16,SW,216,0.0,0.0,86,0.00,,,0.00,WeatherCatV1.23B16,2013-12-17 04:45:00,
2013-12-16 23:50:00,34.3,30.6,30.16,SW,216,0.0,0.0,86,0.00,,,0.00,WeatherCatV1.23B16,2013-12-17 04:50:00,
2013-12-16 23:55:00,34.2,30.7,30.16,SW,216,0.0,0.0,87,0.00,,,0.00,WeatherCatV1.23B16,2013-12-17 04:55:00,